Weather History for Watertown, WI

Change the Weather History Date:

Tuesday, February 26, 2013

  Actual Average Record
Temperature  
Mean Temperature 30 °F -  
Max Temperature 32 °F 35 °F 56 °F (1932)
Min Temperature 29 °F 15 °F -12 °F (1963)
Degree Days  
Heating Degree Days 34    
Moisture  
Dew Point 27 °F    
Average Humidity 83    
Maximum Humidity 96    
Minimum Humidity 71    
Precipitation  
Precipitation 0.02 in - - ()
Sea Level Pressure  
Sea Level Pressure 29.76 in    
Wind  
Wind Speed 13 mph (NE)    
Max Wind Speed 22 mph    
Max Gust Speed 37 mph    
Visibility 8 miles    
Events Snow    
Averages and records for this station are not official NWS values.
T = Trace of Precipitation, MM = Missing Value Source: NWS Daily Summary

Daily Weather History Graph

Daily Weather History Graph

Search for Another Location

Airport:

Trip Planner

Search our weather history database for the weather conditions in past years. The results will help you decide how hot, cold, wet, or windy it might be!

Date:

Astronomy

Feb. 26, 2013 Rise Set
Actual Time 6:35 AM CST 5:40 PM CST
Civil Twilight 6:06 AM CST 6:09 PM CST
Nautical Twilight 5:33 AM CST 6:42 PM CST
Astronomical Twilight 5:00 AM CST 7:15 PM CST
Moon 7:00 PM CST (2/26) 6:35 AM CST (2/26)
Length of Visible Light 12h 02m
Length of Day
11h 05m
Full, 99% of the Moon is Illuminated
Feb 26
Full
Mar 4
Last Quarter
Mar 11
New
Mar 19
First Quarter
Mar 27
Full

Hourly Weather History & Observations

Time (CST) Temp. Windchill Dew Point Humidity Pressure Visibility Wind Dir Wind Speed Gust Speed Precip Events Conditions
12:15 AM 29.5 °F 22.5 °F 25.7 °F 86% 30.01 in 10.0 mi NE 6.9 mph - N/A   Clear
12:35 AM 30.0 °F 21.7 °F 25.3 °F 83% 29.99 in 10.0 mi ENE 9.2 mph - N/A   Clear
12:55 AM 30.6 °F 23.1 °F 25.2 °F 80% 29.99 in 10.0 mi NE 8.1 mph - N/A   Clear
1:15 AM 30.2 °F 22.6 °F 25.2 °F 82% 29.98 in 10.0 mi NE 8.1 mph - N/A   Clear
1:35 AM 30.0 °F 22.4 °F 25.5 °F 83% 29.98 in 10.0 mi ENE 8.1 mph - N/A   Clear
1:55 AM 30.2 °F 21.9 °F 25.5 °F 83% 29.97 in 10.0 mi ENE 9.2 mph - N/A   Clear
2:15 AM 30.6 °F 23.1 °F 25.7 °F 82% 29.96 in 7.0 mi East 8.1 mph - N/A   Clear
2:35 AM 30.9 °F 24.3 °F 25.7 °F 81% 29.95 in 10.0 mi ENE 6.9 mph - N/A   Clear
2:55 AM 31.1 °F 22.4 °F 26.4 °F 83% 29.93 in 10.0 mi ENE 10.4 mph - N/A   Clear
3:15 AM 31.1 °F 22.4 °F 26.6 °F 83% 29.92 in 10.0 mi ENE 10.4 mph - N/A   Clear
3:35 AM 31.1 °F 23.1 °F 26.6 °F 83% 29.91 in 10.0 mi NE 9.2 mph - N/A   Clear
3:55 AM 31.1 °F 23.1 °F 27.0 °F 85% 29.90 in 10.0 mi NE 9.2 mph - N/A   Clear
4:15 AM 31.1 °F 21.9 °F 26.8 °F 84% 29.90 in 10.0 mi ENE 11.5 mph - N/A   Clear
4:35 AM 31.5 °F 22.3 °F 26.6 °F 82% 29.89 in 10.0 mi ENE 11.5 mph - N/A   Clear
4:55 AM 31.6 °F 22.6 °F 26.2 °F 80% 29.88 in 10.0 mi ENE 11.5 mph 17.3 mph N/A   Clear
5:15 AM 31.8 °F 23.3 °F 26.1 °F 79% 29.88 in 10.0 mi ENE 10.4 mph 18.4 mph N/A   Clear
5:35 AM 32.0 °F 23.0 °F 26.2 °F 79% 29.88 in 10.0 mi ENE 11.5 mph - N/A   Clear
5:55 AM 32.0 °F 22.5 °F 26.4 °F 80% 29.87 in 10.0 mi ENE 12.7 mph - N/A   Scattered Clouds
6:15 AM 32.0 °F 22.1 °F 26.6 °F 80% 29.86 in 10.0 mi ENE 13.8 mph 17.3 mph N/A   Mostly Cloudy
6:35 AM 32.0 °F 21.2 °F 27.0 °F 82% 29.85 in 10.0 mi ENE 16.1 mph 19.6 mph N/A   Mostly Cloudy
6:55 AM 31.8 °F 21.0 °F 26.6 °F 81% 29.84 in 10.0 mi ENE 16.1 mph 21.9 mph N/A   Scattered Clouds
7:15 AM 32.0 °F 21.6 °F 25.7 °F 78% 29.85 in 10.0 mi ENE 15.0 mph 25.3 mph N/A   Clear
7:35 AM 32.0 °F 20.8 °F 25.2 °F 76% 29.84 in 10.0 mi ENE 17.3 mph 27.6 mph N/A   Scattered Clouds
8:15 AM 32.0 °F 21.2 °F 25.3 °F 76% 29.85 in 10.0 mi ENE 16.1 mph 25.3 mph N/A   Overcast
8:35 AM 32.0 °F 21.2 °F 25.3 °F 76% 29.84 in 10.0 mi ENE 16.1 mph 31.1 mph N/A   Mostly Cloudy
8:55 AM 32.0 °F 20.8 °F 25.2 °F 76% 29.82 in 10.0 mi ENE 17.3 mph 21.9 mph N/A   Scattered Clouds
9:35 AM 32.2 °F 21.1 °F 24.8 °F 74% 29.80 in 10.0 mi ENE 17.3 mph 23.0 mph N/A   Clear
9:55 AM 32.4 °F 21.3 °F 24.6 °F 73% 29.78 in 10.0 mi ENE 17.3 mph 23.0 mph N/A   Scattered Clouds
10:15 AM 32.4 °F 20.0 °F 24.3 °F 72% 29.77 in 10.0 mi ENE 21.9 mph 27.6 mph N/A   Scattered Clouds
10:35 AM 32.4 °F 20.9 °F 24.4 °F 73% 29.75 in 10.0 mi NE 18.4 mph 24.2 mph N/A   Clear
10:55 AM 32.4 °F 22.5 °F 24.3 °F 72% 29.75 in 10.0 mi NE 13.8 mph 23.0 mph N/A   Clear
11:15 AM 32.5 °F 21.9 °F 24.6 °F 73% 29.75 in 10.0 mi NE 16.1 mph 23.0 mph N/A   Clear
11:35 AM 32.5 °F 22.3 °F 24.1 °F 71% 29.75 in 10.0 mi NE 15.0 mph 25.3 mph N/A   Clear
11:55 AM 32.4 °F 20.6 °F 23.9 °F 71% 29.73 in 10.0 mi NE 19.6 mph 27.6 mph N/A   Clear
12:15 PM 32.0 °F 21.2 °F 23.9 °F 72% 29.72 in 10.0 mi NE 16.1 mph 26.5 mph N/A   Mostly Cloudy
12:35 PM 32.0 °F 20.5 °F 23.7 °F 71% 29.71 in 10.0 mi NNE 18.4 mph 25.3 mph N/A   Overcast
12:55 PM 32.0 °F 20.8 °F 23.9 °F 72% 29.70 in 10.0 mi NE 17.3 mph 26.5 mph N/A   Overcast
1:15 PM 32.0 °F 20.1 °F 23.9 °F 72% 29.70 in 10.0 mi NE 19.6 mph 26.5 mph N/A   Scattered Clouds
1:55 PM 32.2 °F 20.0 °F 24.4 °F 73% 29.69 in 10.0 mi NNE 20.7 mph 28.8 mph N/A   Mostly Cloudy
2:15 PM 32.0 °F 19.8 °F 24.6 °F 74% 29.68 in 10.0 mi NE 20.7 mph 36.8 mph N/A   Overcast
2:55 PM 32.4 °F 20.3 °F 25.5 °F 76% 29.67 in 10.0 mi NNE 20.7 mph 25.3 mph N/A   Overcast
3:15 PM 32.9 °F 21.0 °F 25.5 °F 74% 29.66 in 10.0 mi NNE 20.7 mph 31.1 mph N/A   Overcast
3:35 PM 32.5 °F 21.5 °F 25.9 °F 76% 29.66 in 10.0 mi NNE 17.3 mph 23.0 mph N/A   Overcast
3:55 PM 32.4 °F 20.6 °F 26.1 °F 78% 29.66 in 10.0 mi NNE 19.6 mph 25.3 mph N/A   Overcast
4:15 PM 32.5 °F 20.5 °F 26.2 °F 78% 29.66 in 10.0 mi NNE 20.7 mph 25.3 mph N/A Snow Light Snow
4:35 PM 32.0 °F 20.8 °F 27.7 °F 84% 29.65 in 1.8 mi NNE 17.3 mph 24.2 mph N/A Snow Light Snow
4:55 PM 32.0 °F 20.8 °F 28.2 °F 86% 29.64 in 2.5 mi NNE 17.3 mph 26.5 mph N/A Snow Light Snow
5:35 PM 31.1 °F 19.7 °F 29.3 °F 93% 29.65 in 1.2 mi NNE 17.3 mph 24.2 mph N/A Snow Light Snow
5:55 PM 31.1 °F 20.9 °F 29.7 °F 94% 29.65 in 1.5 mi NNE 13.8 mph 21.9 mph N/A Snow Light Snow
6:15 PM 31.1 °F 20.9 °F 29.7 °F 94% 29.66 in 1.8 mi NNE 13.8 mph 20.7 mph N/A Snow Light Snow
6:35 PM 31.1 °F 20.5 °F 29.8 °F 95% 29.66 in 2.0 mi NNE 15.0 mph 21.9 mph N/A Snow Light Snow
6:55 PM 31.5 °F 19.8 °F 29.7 °F 93% 29.66 in 3.0 mi NNE 18.4 mph 24.2 mph N/A Snow Light Snow
7:15 PM 31.5 °F 20.5 °F 29.3 °F 92% 29.65 in 3.0 mi NNE 16.1 mph 26.5 mph N/A Snow Light Snow
7:35 PM 31.5 °F 20.5 °F 29.3 °F 92% 29.65 in 4.0 mi NNE 16.1 mph 27.6 mph N/A Snow Light Snow
7:55 PM 31.5 °F 22.3 °F 29.7 °F 93% 29.65 in 4.0 mi NNE 11.5 mph 21.9 mph N/A Snow Light Snow
8:15 PM 31.5 °F 21.4 °F 29.5 °F 92% 29.65 in 7.0 mi NNE 13.8 mph 23.0 mph N/A   Overcast
8:35 PM 31.5 °F 20.5 °F 29.5 °F 92% 29.65 in 4.0 mi NNE 16.1 mph 21.9 mph N/A Snow Light Snow
8:55 PM 31.5 °F 21.8 °F 29.1 °F 91% 29.64 in 5.0 mi NNE 12.7 mph 23.0 mph N/A   Overcast
9:15 PM 31.1 °F 20.5 °F 28.8 °F 91% 29.63 in 5.0 mi NNE 15.0 mph 24.2 mph N/A   Overcast
9:35 PM 31.1 °F 20.5 °F 28.8 °F 91% 29.63 in 3.0 mi NNE 15.0 mph 24.2 mph N/A Snow Light Snow
9:55 PM 30.6 °F 19.8 °F 28.9 °F 94% 29.63 in 2.0 mi NNE 15.0 mph 21.9 mph N/A Snow Light Snow
10:15 PM 30.4 °F 20.5 °F 28.9 °F 94% 29.62 in 3.0 mi NNE 12.7 mph 16.1 mph 0.01 in Snow Light Snow
10:35 PM 30.2 °F 20.8 °F 29.1 °F 96% 29.62 in 1.5 mi NNE 11.5 mph 21.9 mph 0.01 in Snow Light Snow
10:55 PM 30.2 °F 20.8 °F 29.1 °F 96% 29.61 in 1.5 mi NNE 11.5 mph 18.4 mph 0.01 in Snow Light Snow
11:15 PM 30.2 °F 20.2 °F 28.9 °F 95% 29.61 in 1.8 mi NNE 12.7 mph 19.6 mph 0.01 in Snow Light Snow
11:35 PM 30.2 °F 20.2 °F 28.9 °F 95% 29.61 in 2.0 mi NNE 12.7 mph 18.4 mph 0.01 in   Overcast
11:55 PM 30.6 °F 21.2 °F 28.6 °F 92% 29.61 in 7.0 mi NNE 11.5 mph - 0.01 in   Overcast